DateTime,Index
2003060700,0.0
2003060706,0.0
2003060712,0.0
2003060718,0.0
2003060800,0.0
2003060806,0.0
2003060812,0.0
2003060818,0.0
2003060900,0.0
2003060906,0.0
2003060912,0.0
2003060918,0.0
2003061000,0.0
2003061006,0.0
2003061012,0.0
2003061018,0.0
2003061100,0.0
2003061106,0.0
2003061112,0.0
2003061118,0.0
2003061200,0.0
2003061206,0.0
2003061212,0.0
2003061218,0.0
2003061300,1225.0
2003061306,2025.0
2003061312,2025.0
2003061318,2500.0
2003061400,2500.0
2003061406,2025.0
2003061412,2025.0
2003061418,2025.0
2003061500,2025.0
2003061506,2500.0
2003061512,3025.0
2003061518,3600.0
2003061600,3600.0
2003061606,3600.0
2003061612,3600.0
2003061618,4225.0
2003061700,5625.0
2003061706,5625.0
2003061712,5625.0
2003061718,8100.0
2003061800,10000.0
2003061806,13225.0
2003061812,13225.0
2003061818,7225.0
2003061900,4900.0
2003061906,4225.0
2003061912,3025.0
2003061918,2025.0
2003062000,2025.0
